Météo par heure à Ali Sabieh

Ce jour, 26 Octobre, Lundi

Heure Température Précipitation Vent Pression Humidité
00:00 +23°C° 0 mm 7 m/s 696 mmHg 71%
01:00 +23°C° 0 mm 6 m/s 696 mmHg 72%
02:00 +22°C° 0 mm 6 m/s 696 mmHg 74%
03:00 +22°C° 0 mm 6 m/s 695 mmHg 75%
04:00 +22°C° 0 mm 6 m/s 696 mmHg 77%
05:00 +22°C° 0 mm 5 m/s 696 mmHg 79%
06:00 +21°C° 0 mm 5 m/s 697 mmHg 80%
07:00 +23°C° 0 mm 6 m/s 697 mmHg 69%
08:00 +26°C° 0 mm 7 m/s 698 mmHg 58%
09:00 +28°C° 0 mm 8 m/s 698 mmHg 47%
10:00 +29°C° 0 mm 8 m/s 698 mmHg 41%
11:00 +32°C° 0 mm 8 m/s 698 mmHg 34%
12:00 +34°C° 0 mm 9 m/s 698 mmHg 27%
13:00 +33°C° 0 mm 9 m/s 697 mmHg 26%
14:00 +33°C° 0 mm 9 m/s 696 mmHg 25%
15:00 +33°C° 0 mm 9 m/s 696 mmHg 24%
16:00 +32°C° 0 mm 8 m/s 696 mmHg 31%
17:00 +29°C° 0 mm 8 m/s 696 mmHg 37%
18:00 +27°C° 0 mm 8 m/s 696 mmHg 43%
19:00 +26°C° 0 mm 7 m/s 696 mmHg 49%
20:00 +26°C° 0 mm 6 m/s 697 mmHg 56%
21:00 +25°C° 0 mm 5 m/s 697 mmHg 62%
22:00 +23°C° 0 mm 6 m/s 697 mmHg 67%
23:00 +23°C° 0 mm 6 m/s 697 mmHg 71%

Demain, 27 Octobre, Mardi

Heure Température Précipitation Vent Pression Humidité
00:00 +22°C° 0 mm 6 m/s 696 mmHg 75%
01:00 +22°C° 0 mm 5 m/s 696 mmHg 78%
02:00 +21°C° 0 mm 5 m/s 696 mmHg 80%
03:00 +21°C° 0 mm 4 m/s 695 mmHg 82%
04:00 +21°C° 0 mm 4 m/s 696 mmHg 82%
05:00 +21°C° 0 mm 4 m/s 696 mmHg 83%
06:00 +20°C° 0 mm 4 m/s 697 mmHg 83%
07:00 +22°C° 0 mm 5 m/s 697 mmHg 72%
08:00 +24°C° 0 mm 6 m/s 698 mmHg 61%
09:00 +27°C° 0 mm 7 m/s 699 mmHg 50%
10:00 +29°C° 0 mm 7 m/s 698 mmHg 44%
11:00 +30°C° 0 mm 7 m/s 698 mmHg 38%
12:00 +33°C° 0 mm 8 m/s 698 mmHg 32%
13:00 +33°C° 0 mm 8 m/s 697 mmHg 32%
14:00 +33°C° 0 mm 8 m/s 697 mmHg 31%
15:00 +33°C° 0 mm 8 m/s 696 mmHg 30%
16:00 +31°C° 0 mm 8 m/s 696 mmHg 36%
17:00 +29°C° 0 mm 7 m/s 696 mmHg 42%
18:00 +27°C° 0 mm 7 m/s 696 mmHg 48%
19:00 +26°C° 0 mm 7 m/s 696 mmHg 53%
20:00 +24°C° 0 mm 6 m/s 697 mmHg 58%
21:00 +24°C° 0 mm 6 m/s 697 mmHg 63%
22:00 +23°C° 0 mm 6 m/s 697 mmHg 67%
23:00 +23°C° 0 mm 5 m/s 697 mmHg 71%

Après-demain, 28 Octobre, Mercredi

Heure Température Précipitation Vent Pression Humidité
00:00 +22°C° 0 mm 5 m/s 696 mmHg 75%
01:00 +22°C° 0 mm 5 m/s 696 mmHg 76%
02:00 +21°C° 0 mm 4 m/s 696 mmHg 77%
03:00 +21°C° 0 mm 4 m/s 696 mmHg 78%
04:00 +21°C° 0 mm 3 m/s 696 mmHg 77%
05:00 +21°C° 0 mm 3 m/s 696 mmHg 76%
06:00 +21°C° 0 mm 3 m/s 696 mmHg 76%
07:00 +23°C° 0 mm 4 m/s 697 mmHg 65%
08:00 +26°C° 0 mm 5 m/s 697 mmHg 55%
09:00 +27°C° 0 mm 6 m/s 698 mmHg 44%
10:00 +29°C° 0 mm 6 m/s 698 mmHg 39%
11:00 +30°C° 0 mm 7 m/s 698 mmHg 34%
12:00 +33°C° 0 mm 7 m/s 697 mmHg 30%
13:00 +33°C° 0 mm 7 m/s 697 mmHg 29%
14:00 +33°C° 0 mm 8 m/s 697 mmHg 28%
15:00 +34°C° 0 mm 8 m/s 696 mmHg 27%
16:00 +32°C° 0 mm 8 m/s 696 mmHg 32%
17:00 +29°C° 0 mm 8 m/s 696 mmHg 37%
18:00 +28°C° 0 mm 7 m/s 696 mmHg 43%
19:00 +27°C° 0 mm 6 m/s 697 mmHg 47%
20:00 +26°C° 0 mm 6 m/s 697 mmHg 52%
21:00 +25°C° 0 mm 5 m/s 698 mmHg 57%
22:00 +25°C° 0 mm 5 m/s 697 mmHg 62%
23:00 +23°C° 0 mm 5 m/s 697 mmHg 67%

29 Octobre, Jeudi

Heure Température Précipitation Vent Pression Humidité
00:00 +22°C° 0 mm 5 m/s 697 mmHg 72%
01:00 +22°C° 0 mm 5 m/s 697 mmHg 76%
02:00 +22°C° 0 mm 4 m/s 696 mmHg 79%
03:00 +21°C° 0 mm 4 m/s 696 mmHg 82%
04:00 +21°C° 0 mm 4 m/s 696 mmHg 84%
05:00 +21°C° 0 mm 4 m/s 696 mmHg 85%
06:00 +20°C° 0 mm 3 m/s 697 mmHg 87%
07:00 +23°C° 0 mm 4 m/s 698 mmHg 73%
08:00 +26°C° 0 mm 5 m/s 698 mmHg 60%
09:00 +28°C° 0 mm 6 m/s 699 mmHg 46%
10:00 +29°C° 0 mm 6 m/s 699 mmHg 39%
11:00 +32°C° 0 mm 7 m/s 699 mmHg 32%
12:00 +34°C° 0 mm 7 m/s 698 mmHg 25%
13:00 +34°C° 0 mm 8 m/s 698 mmHg 25%
14:00 +34°C° 0 mm 8 m/s 697 mmHg 25%
15:00 +34°C° 0 mm 8 m/s 697 mmHg 24%
16:00 +32°C° 0 mm 8 m/s 697 mmHg 30%
17:00 +30°C° 0 mm 7 m/s 697 mmHg 35%
18:00 +28°C° 0 mm 7 m/s 697 mmHg 40%
19:00 +27°C° 0 mm 6 m/s 697 mmHg 45%
20:00 +26°C° 0 mm 5 m/s 697 mmHg 50%
21:00 +25°C° 0 mm 4 m/s 698 mmHg 55%
22:00 +25°C° 0 mm 4 m/s 698 mmHg 58%
23:00 +23°C° 0 mm 4 m/s 697 mmHg 60%

30 Octobre, Vendredi

Heure Température Précipitation Vent Pression Humidité
00:00 +23°C° 0 mm 4 m/s 697 mmHg 63%
01:00 +22°C° 0 mm 4 m/s 697 mmHg 68%
02:00 +22°C° 0 mm 3 m/s 697 mmHg 74%
03:00 +21°C° 0 mm 3 m/s 696 mmHg 79%
04:00 +21°C° 0 mm 3 m/s 697 mmHg 81%
05:00 +21°C° 0 mm 3 m/s 697 mmHg 84%
06:00 +20°C° 0 mm 3 m/s 697 mmHg 86%
07:00 +22°C° 0 mm 4 m/s 698 mmHg 74%
08:00 +26°C° 0 mm 5 m/s 699 mmHg 62%
09:00 +28°C° 0 mm 5 m/s 699 mmHg 50%
10:00 +29°C° 0 mm 6 m/s 699 mmHg 42%
11:00 +32°C° 0 mm 6 m/s 699 mmHg 34%
12:00 +34°C° 0 mm 7 m/s 698 mmHg 26%
13:00 +34°C° 0 mm 7 m/s 698 mmHg 26%
14:00 +34°C° 0 mm 8 m/s 697 mmHg 26%
15:00 +34°C° 0 mm 8 m/s 696 mmHg 26%
16:00 +32°C° 0 mm 8 m/s 696 mmHg 30%
17:00 +30°C° 0 mm 7 m/s 696 mmHg 34%
18:00 +28°C° 0 mm 7 m/s 696 mmHg 39%
19:00 +27°C° 0 mm 6 m/s 697 mmHg 45%
20:00 +26°C° 0 mm 5 m/s 697 mmHg 52%
21:00 +25°C° 0 mm 4 m/s 697 mmHg 59%
22:00 +25°C° 0 mm 4 m/s 697 mmHg 63%
23:00 +23°C° 0 mm 4 m/s 697 mmHg 68%

31 Octobre, Samedi

Heure Température Précipitation Vent Pression Humidité
00:00 +22°C° 0 mm 4 m/s 696 mmHg 73%
01:00 +22°C° 0 mm 4 m/s 696 mmHg 77%
02:00 +22°C° 0 mm 4 m/s 696 mmHg 81%
03:00 +22°C° 0 mm 4 m/s 696 mmHg 85%
04:00 +21°C° 0 mm 4 m/s 696 mmHg 87%
05:00 +21°C° 0 mm 4 m/s 696 mmHg 89%
06:00 +21°C° 0 mm 4 m/s 696 mmHg 91%
07:00 +23°C° 0 mm 5 m/s 697 mmHg 78%
08:00 +26°C° 0 mm 6 m/s 698 mmHg 66%
09:00 +28°C° 0 mm 6 m/s 698 mmHg 54%
Voir plus

Nous avons besoin de votre consentement

Meteoprog et ses fournisseurs de services peuvent stocker et accéder à des données personnelles telles que des cookies, des identifiants d'appareils ou d'autres technologies similaires sur votre appareil et traiter ces données pour personnaliser le contenu et les publicités, ainsi que pour fournir des fonctionnalités de médias sociaux et analyser le trafic.

  • Stocker et/ou accéder à des informations sur votre appareil

    Des cookies, des identifiants d'appareils ou d'autres informations peuvent être stockés ou accessibles sur votre appareil aux fins indiquées ci-dessus.

  • Annonces et contenus personnalisés, mesure des annonces et des contenus, connaissance de l'audience et développement de produits

    Les annonces et le contenu peuvent être personnalisés en fonction d'un profil. D'autres données peuvent être ajoutées pour mieux personnaliser les annonces et le contenu. Les performances des publicités et du contenu peuvent être mesurées. Il est possible d'obtenir des informations sur le public qui a vu les publicités et le contenu. Ces données peuvent être utilisées pour développer ou améliorer l'expérience de l'utilisateur, les systèmes et les logiciels.

En cliquant sur "J'accepte", vous autorisez l'utilisation de cookies, des identifiants d'appareils, des balises web ou d'autres technologies similaires. Vos paramètres peuvent être modifiés dans le navigateur de votre appareil.

Dans certains cas, des intérêts légitimes peuvent être invoqués plutôt qu'un consentement. Vous pouvez en savoir plus à ce sujet dans notre Politique de confidentialité et de cookies.